Temp
18 19 19 20 19 19 19 19 19 19 18 18 18 18 17 17 17 17 17 17 17 17 17 16 16 17 17 16 16 16 16 16 17 16 16 17 17 17 17 17 17 17
18 19 19 19 19 18 19 19 19 18 18 18 18 17 17 17 17 17 17 17 17 17 17 17 16 17 17 16 16 16 16 16 17 16 16 17 17 17 17 17 17 17
18 19 19 19 19 19 19 18 18 18 18 18 18 18 17 17 17 17 17 17 17 17 17 17 17 17 17 16 16 16 16 16 16 16 16 17 17 17 17 17 17 17
19 19 20 19 19 19 19 18 18 18 18 18 18 18 18 17 17 17 17 17 17 17 17 17 17 17 16 16 16 17 16 16 16 16 16 16 17 17 17 17 17 17
19 19 19 19 19 19 18 18 18 18 18 18 18 17 17 17 17 17 17 17 17 17 17 17 17 17 16 17 17 17 17 17 16 16 16 16 17 17 17 16 16 16
19 19 19 19 19 19 19 19 18 18 18 18 18 18 17 17 17 17 17 18 18 18 18 17 17 17 17 17 17 17 17 17 16 16 16 16 16 17 16 16 16 16
18 18 18 18 19 19 19 19 18 18 18 18 18 17 17 17 17 17 17 18 18 18 18 17 17 17 17 17 17 16 17 17 16 16 16 16 16 16 16 16 16 16
18 18 18 18 19 19 19 19 18 18 18 18 18 17 17 17 17 17 17 18 18 17 17 17 17 17 17 17 17 17 17 18 17 16 17 17 17 16 16 16 16 16
18 18 18 19 19 19 19 19 18 18 18 18 18 18 18 18 18 17 17 17 17 17 17 17 17 17 17 17 17 17 17 17 17 17 17 17 17 17 16 16 16 16
18 18 18 19 18 18 19 19 18 18 18 18 18 18 18 17 17 17 17 17 17 17 17 17 17 17 17 17 17 17 17 17 17 17 17 17 17 17 17 16 16 16
18 18 18 18 18 18 18 18 18 18 18 18 18 18 18 17 17 17 17 17 18 18 17 17 17 17 17 17 17 17 17 17 17 17 18 18 17 17 17 16 16 16
18 18 18 18 18 18 18 18 18 18 18 18 18 18 17 18 17 17 18 18 18 18 18 17 17 17 17 17 17 17 17 17 18 18 18 18 18 17 17 17 16 16
18 18 18 18 18 18 18 18 18 18 18 18 18 18 18 18 18 18 18 18 18 18 18 17 17 17 17 17 17 17 17 18 18 18 18 18 18 18 17 17 16 16
18 18 18 18 18 18 18 18 18 18 18 18 18 18 18 18 18 18 19 18 18 18 18 17 17 17 17 18 17 17 18 17 17 18 18 18 18 18 17 16 16 16
18 18 18 18 18 17 17 18 18 18 18 18 18 18 18 18 18 18 19 18 18 18 18 17 18 18 18 17 17 17 17 17 17 17 18 17 17 18 17 16 16 16
18 18 18 17 17 17 17 18 18 18 18 18 18 18 18 18 17 18 18 18 18 18 18 18 19 19 17 16 17 17 16 16 17 17 17 17 17 18 17 17 16 16
18 18 18 17 17 17 17 17 18 18 18 18 18 18 17 17 17 17 18 18 18 18 19 19 19 18 17 17 16 16 16 16 17 17 18 18 18 18 18 17 17 16
18 18 17 17 17 17 17 17 17 17 17 17 18 17 17 17 17 17 17 17 18 18 18 19 19 18 17 17 17 17 16 16 17 17 18 18 18 18 18 17 17 16
18 17 17 17 17 17 17 17 17 17 17 17 18 18 17 17 17 17 17 17 17 17 18 18 18 17 17 17 17 17 17 16 16 17 17 17 17 17 17 17 16 16
17 17 17 17 17 17 17 17 17 17 18 18 18 18 17 17 17 17 17 17 17 17 17 18 18 17 17 16 16 17 17 16 16 17 17 18 17 17 17 16 16 16
17 17 17 17 17 17 17 17 18 18 18 18 18 18 18 17 17 17 17 17 17 17 18 18 18 17 16 16 16 16 16 16 16 17 17 18 18 17 17 16 16 16
17 17 17 17 17 17 17 17 17 18 18 18 18 18 18 18 17 17 18 18 17 17 17 18 18 17 17 16 16 16 16 16 17 17 17 17 18 17 16 16 16 16
17 18 18 18 17 17 17 17 17 17 17 18 18 18 19 18 18 18 18 18 18 18 17 18 18 17 17 16 16 16 16 16 17 17 17 18 18 17 17 16 16 16
17 17 17 17 17 17 17 17 17 17 17 18 18 18 18 18 18 18 18 18 18 18 17 17 18 17 17 17 17 16 16 17 17 17 18 18 18 18 17 17 16 16
17 17 17 17 17 17 17 17 17 17 18 18 18 18 18 18 18 18 18 18 18 17 17 17 17 17 17 17 17 17 17 17 17 18 18 18 18 18 18 17 17 16
17 17 17 17 17 17 17 17 17 17 18 18 17 18 18 18 18 18 18 18 18 18 18 17 17 17 17 17 17 17 17 17 17 18 18 18 18 18 18 18 18 17
Height
853 856 857 858 859 860 861 862 863 864 865 865 865 866 866 866 865 865 865 865 864 864 863 862 861 861 860 859 859 858 858 857 856 856 855 854 853 852 852 851 849 849
853 855 856 857 858 860 860 862 863 864 865 865 865 866 866 866 866 866 866 865 865 864 864 863 862 861 860 860 859 859 859 858 857 857 856 855 854 853 852 851 850 849
853 855 855 856 858 859 860 862 863 864 865 865 866 866 866 866 866 866 866 866 865 865 864 864 863 862 861 860 860 860 860 859 858 858 858 856 855 854 853 852 851 850
852 854 855 856 857 858 860 861 863 864 865 865 866 866 866 866 867 867 867 866 866 866 865 864 864 862 862 861 861 861 860 860 860 859 858 857 856 855 854 853 852 851
852 854 855 856 857 858 860 861 862 864 865 865 866 866 866 867 867 867 867 867 866 866 865 865 864 863 863 862 862 861 861 861 861 860 859 858 857 856 855 855 853 852
852 854 855 857 857 859 860 861 862 864 865 865 866 866 866 867 867 867 867 867 866 866 865 865 865 864 864 864 863 863 862 862 862 861 860 859 858 857 856 856 854 852
852 853 855 857 858 859 860 861 863 864 865 865 866 866 867 867 867 867 867 867 866 866 866 866 866 865 865 864 864 864 863 862 862 862 861 860 859 859 857 856 855 853
852 854 856 858 858 859 860 861 863 864 865 865 866 866 867 867 868 868 868 867 867 867 867 867 866 866 866 865 865 864 863 863 862 862 861 861 860 859 858 857 856 854
852 854 856 858 859 860 861 862 863 864 865 865 865 866 867 868 868 868 868 868 868 867 867 867 867 866 866 866 865 865 864 863 863 862 862 861 860 859 859 858 856 855
852 854 856 858 859 860 861 863 864 865 865 865 866 867 867 868 869 869 869 868 868 868 867 867 867 867 866 866 866 865 864 864 863 863 862 861 860 860 859 858 857 855
852 854 856 857 859 861 862 863 864 865 865 866 866 867 868 869 869 869 869 868 868 868 868 867 867 867 867 866 866 865 865 864 864 863 862 861 861 860 859 858 857 856
852 854 856 857 859 861 862 864 865 865 865 866 867 867 868 869 869 869 869 868 868 868 868 868 867 867 867 867 866 866 865 864 863 862 861 860 860 860 859 858 857 856
852 854 855 857 859 860 862 864 865 865 866 866 867 868 868 868 869 869 868 868 868 868 868 868 867 867 867 867 866 865 864 864 863 862 861 860 859 859 859 858 857 856
851 853 855 857 858 860 862 863 864 865 866 867 868 868 868 868 868 868 868 868 868 868 868 867 867 867 866 866 865 865 864 864 863 862 861 860 859 858 858 859 858 857
851 853 855 857 858 860 862 863 864 866 866 867 868 868 868 868 868 868 867 868 868 868 867 867 866 865 865 866 865 865 864 863 863 862 861 861 860 858 858 858 858 857
851 853 854 856 858 860 862 863 864 866 866 867 868 868 868 868 869 868 867 867 867 867 866 865 864 864 864 865 865 864 864 863 862 862 861 861 860 859 858 858 857 857
850 852 854 856 858 860 862 863 865 866 866 867 868 868 868 868 868 868 867 867 866 866 865 864 863 864 864 865 864 864 863 863 862 861 860 860 859 858 858 857 857 857
850 852 854 857 859 860 862 863 865 865 866 867 867 868 868 867 867 868 867 867 866 866 865 864 863 863 863 864 864 863 863 862 861 861 859 859 859 858 858 857 857 857
850 852 854 857 859 861 862 863 864 865 866 867 867 867 867 867 867 867 867 866 866 865 865 864 863 863 863 863 862 862 862 861 861 860 859 859 858 858 858 857 857 857
851 852 855 857 858 860 862 863 864 865 865 866 866 867 867 866 866 866 866 866 865 864 864 863 862 862 862 862 861 861 861 860 860 859 858 858 858 858 858 857 857 856
851 853 855 857 859 860 861 862 863 864 865 865 865 866 865 865 866 865 865 865 864 863 863 862 862 861 861 861 860 860 860 859 859 858 858 857 857 857 857 857 856 856
851 853 855 856 858 860 861 862 863 864 864 865 865 865 864 864 865 865 864 864 863 862 862 861 861 861 860 860 859 859 859 858 858 858 857 856 856 856 856 856 856 855
851 852 854 856 858 859 860 862 863 864 864 864 865 864 863 863 864 863 863 863 862 862 861 861 860 860 859 859 858 858 858 857 857 857 856 855 855 855 855 855 855 854
850 852 854 855 857 858 860 861 862 863 863 863 864 864 863 863 863 862 862 862 861 861 860 860 860 859 858 858 857 857 857 856 857 856 855 854 854 854 854 854 853 852
850 852 853 855 856 858 859 860 861 862 862 863 863 863 862 862 862 861 861 861 860 860 859 859 858 858 857 857 856 856 856 855 856 855 854 853 853 853 853 852 852 851
849 852 853 854 856 857 858 859 860 861 861 862 862 862 861 861 861 860 860 860 860 859 858 858 857 856 856 855 855 855 854 854 855 854 853 853 852 852 852 851 850 850
Wind_Speed
16 14 12 10 9 9 8 7 6 5 5 5 5 5 5 5 5 6 6 6 6 6 6 6 5 5 6 7 7 8 9 9 9 9 9 9 9 10 10 11 11 10
15 13 12 10 10 9 8 8 6 6 6 5 6 6 6 5 5 5 5 4 6 6 7 7 7 7 6 6 7 8 8 8 9 9 9 9 9 10 11 11 11 11
16 14 12 11 10 10 9 8 7 7 7 6 7 6 6 6 5 4 4 4 6 7 7 8 8 8 8 7 7 8 8 8 9 8 8 9 9 10 11 12 12 13
16 13 11 11 11 11 10 9 8 8 7 7 7 6 6 6 6 5 5 4 6 6 7 8 9 10 9 8 7 7 8 8 9 8 8 8 9 9 11 12 13 13
15 12 11 11 11 11 10 10 9 8 8 8 7 7 7 6 5 5 5 4 5 5 6 7 8 10 10 9 8 7 8 9 8 8 8 9 9 10 11 12 13 14
14 12 12 12 12 12 11 10 10 9 9 8 8 7 6 5 4 4 4 4 4 5 6 7 7 9 9 9 9 8 9 9 8 8 9 10 11 11 11 12 13 14
14 13 13 13 12 12 11 11 11 10 9 9 8 7 6 6 5 4 4 4 5 6 6 7 6 6 7 7 7 6 6 7 8 8 8 9 10 11 11 12 13 13
15 14 14 13 13 12 12 12 12 10 10 10 10 9 7 7 6 5 4 5 6 6 6 6 6 5 6 6 6 6 5 6 7 7 7 8 8 10 11 12 12 13
15 15 14 14 14 13 13 13 12 11 11 11 11 9 8 7 6 6 5 5 6 6 6 6 5 5 5 5 5 5 5 6 6 6 7 7 8 9 10 11 12 13
16 15 15 15 15 14 13 13 12 11 11 11 10 9 8 7 6 6 5 5 6 6 6 6 5 4 3 3 3 4 4 5 6 7 7 7 8 9 10 10 11 12
16 16 16 16 15 14 13 12 11 11 11 10 9 8 8 7 5 5 5 4 5 5 6 5 4 4 3 3 3 4 4 5 6 7 8 8 7 8 9 9 10 11
16 16 16 16 15 14 13 12 10 10 10 9 8 7 6 5 5 4 3 3 3 4 5 4 4 4 4 4 4 4 5 5 6 7 8 8 8 8 8 9 10 10
16 16 16 15 15 14 13 11 10 10 9 8 7 6 5 5 4 3 2 2 2 2 3 3 3 3 3 4 4 5 5 5 6 7 8 8 9 8 6 8 9 9
16 15 15 15 14 14 12 11 9 9 8 7 6 6 5 4 4 4 3 2 1 1 2 2 1 2 3 3 4 4 5 5 5 7 7 8 9 9 6 6 7 8
15 14 15 14 13 13 12 10 9 9 8 7 6 5 5 4 4 4 3 2 2 1 1 1 1 1 2 3 4 5 5 5 6 7 7 7 8 9 7 5 6 7
14 14 14 14 13 13 12 10 9 9 8 8 6 5 5 5 5 5 4 3 3 2 1 1 1 2 3 4 5 6 6 6 6 6 7 6 7 9 7 5 5 6
14 14 14 13 13 12 11 10 10 9 8 8 6 6 5 5 5 5 4 3 2 2 1 2 1 2 3 5 6 7 7 7 6 6 6 6 7 7 6 5 5 5
14 14 14 13 13 12 12 11 10 9 9 8 7 6 6 6 6 5 4 3 2 2 2 2 1 1 4 6 7 7 8 7 7 7 6 6 6 6 6 5 4 5
13 14 14 14 13 13 12 11 11 10 9 9 8 6 6 6 6 5 4 4 3 3 3 3 2 2 5 6 7 7 8 7 7 7 6 5 5 6 5 4 4 4
13 14 14 14 14 13 13 12 11 10 10 9 8 7 6 6 6 6 5 5 5 4 3 3 3 3 5 7 7 7 8 8 8 7 6 5 4 4 4 3 3 3
12 14 14 14 14 13 13 13 12 11 10 9 8 8 8 7 7 7 5 5 5 4 4 4 3 5 7 7 7 7 9 9 8 7 6 4 3 3 3 3 3 3
13 13 13 13 14 14 13 13 12 12 10 9 9 9 8 7 7 7 6 5 5 4 4 4 4 6 8 8 8 8 9 8 8 7 5 4 4 3 3 3 4 4
13 12 12 12 13 13 13 13 13 12 12 10 10 9 8 7 7 7 6 6 5 4 5 5 5 6 8 9 9 9 9 8 8 7 5 4 3 4 4 4 5 5
13 12 11 11 12 13 13 12 12 13 13 11 10 10 9 8 7 6 6 5 5 5 5 6 6 7 9 10 10 10 9 8 7 7 5 4 4 5 5 5 6 7
14 13 11 10 11 12 12 12 12 13 13 12 11 10 10 9 8 6 5 5 5 5 6 7 8 8 9 10 10 10 9 8 7 6 5 5 5 5 5 5 7 8
15 13 12 10 10 12 13 12 12 13 13 12 11 11 10 9 7 7 6 6 6 6 6 7 8 8 9 10 10 9 9 8 8 7 5 5 5 5 7 7 6 7
Wind_Direction
170 171 168 164 157 153 154 153 151 144 143 149 134 117 109 102 96 90 81 71 64 61 56 54 53 57 59 54 50 49 45 41 39 39 35 35 37 36 34 29 26 16
167 166 163 158 151 150 154 152 148 142 144 145 132 127 125 118 110 97 89 81 75 72 65 62 60 56 58 58 55 51 46 39 38 38 33 32 33 31 29 24 21 14
165 165 163 156 151 153 152 147 146 145 143 140 134 134 130 122 114 101 93 86 82 77 70 68 63 57 58 63 64 59 52 42 39 38 34 32 32 29 27 20 15 13
165 168 164 154 153 153 150 148 149 147 143 140 134 130 125 122 121 113 103 96 90 83 77 73 65 60 60 65 71 68 60 53 45 38 36 34 30 29 27 19 14 13
164 165 158 154 154 152 152 152 150 148 148 144 136 131 128 129 131 128 120 117 110 97 87 81 71 66 63 63 67 67 63 60 52 43 40 37 31 28 25 17 14 13
160 158 155 156 156 155 155 149 146 148 151 148 141 136 133 131 132 132 128 121 111 99 90 82 75 71 68 67 67 67 65 60 52 44 42 39 32 27 23 17 13 12
155 153 156 159 158 155 150 144 144 149 150 145 139 134 129 127 130 133 131 117 104 99 92 84 78 73 71 71 69 70 71 64 53 43 38 38 31 26 23 18 14 12
151 154 159 159 155 150 144 141 143 145 144 137 132 131 129 127 130 133 129 114 104 101 96 90 82 71 65 65 62 58 55 54 49 38 32 32 28 24 22 16 13 12
152 157 161 158 151 146 142 142 142 142 140 134 129 128 126 123 124 126 121 112 105 101 96 90 82 73 68 63 57 49 41 38 36 28 24 23 21 20 18 13 11 11
156 161 161 157 151 147 145 144 144 143 139 133 129 125 122 121 123 124 122 116 111 104 96 88 79 71 65 58 51 37 26 22 22 18 13 12 13 13 12 9 9 9
159 162 162 159 154 152 151 150 151 149 143 139 135 129 126 128 131 130 125 119 114 105 96 89 80 69 52 42 39 24 14 11 13 11 8 6 6 6 7 7 8 7
160 162 162 161 159 158 158 160 161 159 153 147 143 140 144 147 146 142 130 122 118 108 100 92 82 70 52 36 28 23 16 10 9 9 5 4 5 3 2 4 6 7
162 164 163 163 163 162 162 167 170 167 163 157 154 160 169 167 162 166 165 149 132 117 106 94 80 62 46 33 25 21 14 10 9 6 3 3 4 4 3 1 3 7
164 165 164 163 163 162 167 173 171 169 170 166 168 180 188 191 193 195 194 183 169 153 121 97 75 46 27 14 8 7 7 10 6 359 1 2 359 2 6 359 357 7
162 163 162 160 160 163 170 176 172 172 177 177 182 192 198 208 215 216 217 208 206 203 151 84 347 65 42 359 346 343 346 356 357 352 358 359 355 358 0 354 355 6
159 160 159 159 161 166 172 177 176 177 182 185 192 199 205 211 212 219 225 215 218 228 201 284 334 63 41 346 338 333 327 335 345 349 353 351 348 351 350 350 357 2
159 160 159 162 166 169 174 178 180 183 187 190 196 202 209 212 210 217 229 232 243 261 273 297 336 30 357 329 332 333 325 322 329 340 345 341 341 346 347 350 354 357
162 162 163 167 169 172 176 179 184 188 190 194 199 204 209 212 216 221 225 236 248 256 282 297 319 351 326 317 320 325 324 317 316 324 333 338 342 343 345 349 347 350
166 166 169 172 173 178 180 183 188 190 193 199 201 207 213 215 222 226 225 239 251 250 269 286 296 321 324 322 317 318 320 314 308 310 315 326 337 336 339 346 335 335
169 172 175 176 179 184 186 188 193 194 198 202 203 212 222 224 230 233 234 247 252 251 265 276 290 318 328 327 321 315 316 311 303 303 305 311 326 324 326 332 316 310
173 175 178 181 185 190 192 195 197 200 204 205 207 217 222 226 238 245 248 253 250 257 274 281 299 324 333 334 322 310 311 308 300 299 300 302 310 311 305 300 289 290
174 175 181 187 191 194 197 199 200 205 209 209 216 225 224 229 245 253 256 257 253 261 277 287 302 317 329 336 325 308 303 302 299 295 289 288 291 290 284 271 265 275
174 176 182 188 192 195 199 201 204 209 212 213 220 229 232 239 249 251 250 254 257 264 280 295 301 307 318 326 323 311 301 297 298 295 282 278 280 273 272 263 255 260
181 182 185 187 191 195 199 204 208 210 213 215 221 230 237 246 253 252 248 252 259 268 281 294 299 303 311 315 315 308 298 292 294 291 280 276 273 264 265 262 258 264
188 189 192 193 195 199 203 207 209 210 213 215 222 232 239 243 248 249 248 250 256 267 278 288 296 303 306 308 308 302 292 285 285 284 277 274 269 261 264 265 262 268
192 193 197 200 202 205 209 210 209 212 215 217 223 233 239 241 245 250 256 256 259 267 274 282 294 303 304 304 303 294 282 277 277 276 271 267 266 265 269 270 269 268